| time (UTC) | temp C | wind direction | speed KPH | gust KPH | rain 1hr cm | rain 24hr cm | rain mn cm | humidity % | barometer mb |
| 20260509171526 | 11 | 61 | 1.6 | 6.4 | 0.00 | 0.00 | 0.00 | 75 | 1020.6 |
| 20260509171024 | 11 | 58 | 1.6 | 6.4 | 0.00 | 0.00 | 0.00 | 75 | 1020.6 |
| 20260509170527 | 11 | 72 | 0.0 | 8.0 | 0.00 | 0.00 | 0.00 | 74 | 1020.6 |
| 20260509170025 | 11 | 88 | 1.6 | 9.7 | 0.00 | 0.00 | 0.00 | 73 | 1020.7 |
| 20260509165523 | 11 | 63 | 3.2 | 12.9 | 0.00 | 0.00 | 0.00 | 74 | 1020.7 |
| 20260509165023 | 11 | 65 | 4.8 | 12.9 | 0.00 | 0.00 | 0.00 | 72 | 1020.8 |
| 20260509164523 | 12 | 89 | 3.2 | 12.9 | 0.00 | 0.00 | 0.00 | 73 | 1020.7 |
| 20260509164024 | 12 | 103 | 0.0 | 9.7 | 0.00 | 0.00 | 0.00 | 73 | 1020.7 |
| 20260509163523 | 12 | 94 | 1.6 | 9.7 | 0.00 | 0.00 | 0.00 | 74 | 1020.8 |
| 20260509163032 | 12 | 90 | 3.2 | 8.0 | 0.00 | 0.00 | 0.00 | 72 | 1020.6 |
| 20260509162522 | 12 | 89 | 3.2 | 9.7 | 0.00 | 0.00 | 0.00 | 72 | 1020.7 |
| 20260509162023 | 12 | 103 | 3.2 | 14.5 | 0.00 | 0.00 | 0.00 | 72 | 1020.8 |
| 20260509161521 | 12 | 87 | 4.8 | 11.3 | 0.00 | 0.00 | 0.00 | 74 | 1020.7 |
| 20260509161023 | 11 | 60 | 1.6 | 11.3 | 0.00 | 0.00 | 0.00 | 74 | 1020.8 |
| 20260509160521 | 11 | 86 | 1.6 | 9.7 | 0.00 | 0.00 | 0.00 | 74 | 1020.8 |
| 20260509160021 | 11 | 78 | 3.2 | 11.3 | 0.00 | 0.00 | 0.00 | 75 | 1020.8 |
| 20260509155521 | 11 | 96 | 3.2 | 11.3 | 0.00 | 0.00 | 0.00 | 73 | 1020.9 |
| 20260509155020 | 12 | 88 | 3.2 | 9.7 | 0.00 | 0.00 | 0.00 | 72 | 1021.0 |
| 20260509154521 | 12 | 92 | 3.2 | 9.7 | 0.00 | 0.00 | 0.00 | 71 | 1020.9 |
| 20260509154019 | 12 | 114 | 0.0 | 9.7 | 0.00 | 0.00 | 0.00 | 71 | 1021.0 |
| 20260509153519 | 12 | 63 | 0.0 | 6.4 | 0.00 | 0.00 | 0.00 | 71 | 1021.0 |
| 20260509153024 | 12 | 82 | 1.6 | 9.7 | 0.00 | 0.00 | 0.00 | 69 | 1021.0 |
| 20260509152517 | 12 | 104 | 1.6 | 9.7 | 0.00 | 0.00 | 0.00 | 72 | 1021.1 |
| 20260509152016 | 12 | 69 | 3.2 | 6.4 | 0.00 | 0.00 | 0.00 | 70 | 1021.2 |
| 20260509151515 | 12 | 224 | 0.0 | 4.8 | 0.00 | 0.00 | 0.00 | 71 | 1021.0 |
| 20260509151014 | 12 | 230 | 1.6 | 4.8 | 0.00 | 0.00 | 0.00 | 70 | 1021.2 |
| 20260509150515 | 12 | 94 | 0.0 | 4.8 | 0.00 | 0.00 | 0.00 | 71 | 1021.0 |
| 20260509150013 | 11 | 90 | 0.0 | 4.8 | 0.00 | 0.00 | 0.00 | 69 | 1021.1 |
| 20260509145514 | 11 | 90 | 0.0 | 4.8 | 0.00 | 0.00 | 0.00 | 73 | 1021.1 |
| 20260509145013 | 11 | 43 | 0.0 | 8.0 | 0.00 | 0.00 | 0.00 | 71 | 1021.1 |
| 20260509144513 | 11 | 87 | 1.6 | 8.0 | 0.00 | 0.00 | 0.00 | 71 | 1021.2 |
| 20260509144015 | 11 | 88 | 1.6 | 6.4 | 0.00 | 0.00 | 0.00 | 71 | 1021.2 |
| 20260509143513 | 11 | 68 | 3.2 | 11.3 | 0.00 | 0.00 | 0.00 | 73 | 1021.3 |
| 20260509143012 | 11 | 116 | 3.2 | 11.3 | 0.00 | 0.00 | 0.00 | 71 | 1021.3 |
| 20260509142515 | 11 | 101 | 1.6 | 11.3 | 0.00 | 0.00 | 0.00 | 70 | 1021.2 |
| 20260509142011 | 11 | 98 | 4.8 | 11.3 | 0.00 | 0.00 | 0.00 | 70 | 1021.2 |
| 20260509141511 | 11 | 63 | 1.6 | 4.8 | 0.00 | 0.00 | 0.00 | 71 | 1021.4 |
| 20260509141010 | 11 | 83 | 0.0 | 4.8 | 0.00 | 0.00 | 0.00 | 74 | 1021.4 |
| 20260509140509 | 11 | 83 | 0.0 | 4.8 | 0.00 | 0.00 | 0.00 | 74 | 1021.4 |
| 20260509140013 | 11 | 73 | 0.0 | 3.2 | 0.00 | 0.00 | 0.00 | 75 | 1021.4 |
| 20260509135508 | 11 | 71 | 0.0 | 6.4 | 0.00 | 0.03 | 0.00 | 75 | 1021.5 |
| 20260509135009 | 11 | 88 | 0.0 | 9.7 | 0.00 | 0.03 | 0.00 | 75 | 1021.5 |
| 20260509134508 | 11 | 81 | 0.0 | 9.7 | 0.00 | 0.03 | 0.00 | 73 | 1021.6 |
| 20260509134007 | 11 | 69 | 3.2 | 8.0 | 0.00 | 0.03 | 0.00 | 72 | 1021.7 |
| 20260509133508 | 11 | 78 | 1.6 | 4.8 | 0.00 | 0.03 | 0.00 | 72 | 1021.6 |
| 20260509133008 | 11 | 77 | 0.0 | 6.4 | 0.00 | 0.03 | 0.00 | 74 | 1021.6 |
| 20260509132507 | 11 | 77 | 1.6 | 6.4 | 0.00 | 0.03 | 0.00 | 72 | 1021.6 |
| 20260509132007 | 11 | 107 | 0.0 | 9.7 | 0.00 | 0.03 | 0.00 | 72 | 1021.7 |
| 20260509131509 | 11 | 76 | 1.6 | 8.0 | 0.00 | 0.03 | 0.00 | 74 | 1021.7 |
| 20260509131006 | 11 | 59 | 3.2 | 9.7 | 0.00 | 0.03 | 0.00 | 73 | 1021.7 |
| 20260509130507 | 11 | 71 | 3.2 | 9.7 | 0.00 | 0.03 | 0.00 | 72 | 1021.8 |
| 20260509130018 | 11 | 100 | 3.2 | 9.7 | 0.00 | 0.03 | 0.00 | 72 | 1021.9 |
| 20260509125505 | 11 | 42 | 1.6 | 16.1 | 0.00 | 0.03 | 0.00 | 73 | 1021.9 |
| 20260509125008 | 12 | 109 | 1.6 | 9.7 | 0.00 | 0.03 | 0.00 | 73 | 1021.8 |
| 20260509124505 | 12 | 59 | 4.8 | 9.7 | 0.00 | 0.03 | 0.00 | 72 | 1021.9 |
| 20260509124007 | 12 | 106 | 0.0 | 4.8 | 0.00 | 0.03 | 0.00 | 77 | 1021.8 |
| 20260509123504 | 11 | 71 | 1.6 | 6.4 | 0.00 | 0.03 | 0.00 | 74 | 1021.9 |
| 20260509123005 | 11 | 283 | 0.0 | 6.4 | 0.00 | 0.03 | 0.00 | 73 | 1021.8 |
| 20260509122502 | 11 | 98 | 3.2 | 6.4 | 0.00 | 0.03 | 0.00 | 74 | 1022.0 |
| 20260509122001 | 11 | 251 | 1.6 | 4.8 | 0.00 | 0.03 | 0.00 | 75 | 1022.0 |
| 20260509121502 | 11 | 164 | 0.0 | 8.0 | 0.00 | 0.03 | 0.00 | 73 | 1022.0 |
| 20260509121004 | 11 | 101 | 3.2 | 8.0 | 0.00 | 0.03 | 0.00 | 73 | 1022.1 |
| 20260509120601 | 11 | 316 | 3.2 | 6.4 | 0.00 | 0.03 | 0.00 | 74 | 1022.1 |
| 20260509120101 | 11 | 80 | 1.6 | 6.4 | 0.00 | 0.03 | 0.00 | 75 | 1022.1 |
| 20260509115600 | 11 | 207 | 1.6 | 8.0 | 0.00 | 0.03 | 0.00 | 76 | 1022.2 |
| 20260509115100 | 11 | 91 | 3.2 | 9.7 | 0.00 | 0.03 | 0.00 | 76 | 1022.2 |
| 20260509114610 | 11 | 82 | 1.6 | 9.7 | 0.00 | 0.03 | 0.00 | 76 | 1022.2 |
| 20260509114059 | 11 | 90 | 1.6 | 9.7 | 0.00 | 0.03 | 0.00 | 76 | 1022.3 |
| 20260509113601 | 11 | 109 | 1.6 | 9.7 | 0.00 | 0.03 | 0.00 | 74 | 1022.3 |
| 20260509113158 | 11 | 67 | 3.2 | 9.7 | 0.00 | 0.03 | 0.00 | 73 | 1022.2 |
| 20260509112557 | 11 | 128 | 0.0 | 8.0 | 0.00 | 0.03 | 0.00 | 78 | 1022.2 |
| 20260509112056 | 11 | 80 | 3.2 | 8.0 | 0.00 | 0.03 | 0.00 | 74 | 1022.3 |
| 20260509111556 | 11 | 96 | 1.6 | 6.4 | 0.00 | 0.03 | 0.00 | 75 | 1022.4 |
| 20260509111056 | 11 | 138 | 0.0 | 4.8 | 0.00 | 0.03 | 0.00 | 74 | 1022.3 |
| 20260509110558 | 11 | 135 | 1.6 | 6.4 | 0.00 | 0.03 | 0.00 | 74 | 1022.4 |
| 20260509110104 | 11 | 253 | 0.0 | 6.4 | 0.00 | 0.03 | 0.00 | 77 | 1022.4 |
| 20260509105555 | 10 | 246 | 1.6 | 6.4 | 0.00 | 0.03 | 0.00 | 77 | 1022.3 |
| 20260509105055 | 10 | 101 | 3.2 | 6.4 | 0.00 | 0.03 | 0.00 | 74 | 1022.5 |
| 20260509104555 | 10 | 118 | 1.6 | 4.8 | 0.00 | 0.03 | 0.00 | 75 | 1022.5 |
| 20260509104154 | 10 | 72 | 1.6 | 6.4 | 0.00 | 0.03 | 0.00 | 74 | 1022.4 |
| 20260509103556 | 10 | 87 | 3.2 | 6.4 | 0.00 | 0.03 | 0.00 | 74 | 1022.5 |
| 20260509103101 | 10 | 59 | 1.6 | 4.8 | 0.00 | 0.03 | 0.00 | 75 | 1022.5 |
| 20260509102553 | 10 | 88 | 0.0 | 8.0 | 0.00 | 0.03 | 0.00 | 75 | 1022.5 |
| 20260509102054 | 10 | 88 | 0.0 | 8.0 | 0.00 | 0.03 | 0.00 | 77 | 1022.6 |
| 20260509101603 | 10 | 76 | 0.0 | 6.4 | 0.00 | 0.03 | 0.00 | 77 | 1022.5 |
| 20260509101052 | 10 | 83 | 3.2 | 6.4 | 0.00 | 0.03 | 0.00 | 77 | 1022.4 |
| 20260509100553 | 10 | 84 | 3.2 | 9.7 | 0.00 | 0.03 | 0.00 | 77 | 1022.6 |
| 20260509100053 | 10 | 115 | 3.2 | 9.7 | 0.00 | 0.03 | 0.00 | 76 | 1022.5 |
| 20260509095552 | 10 | 84 | 1.6 | 8.0 | 0.00 | 0.03 | 0.00 | 78 | 1022.6 |
| 20260509095052 | 10 | 269 | 1.6 | 6.4 | 0.00 | 0.03 | 0.00 | 78 | 1022.6 |
| 20260509094603 | 10 | 70 | 0.0 | 8.0 | 0.00 | 0.03 | 0.00 | 78 | 1022.6 |
| 20260509094052 | 10 | 86 | 4.8 | 8.0 | 0.00 | 0.03 | 0.00 | 77 | 1022.5 |
| 20260509093551 | 10 | 249 | 0.0 | 6.4 | 0.00 | 0.03 | 0.00 | 80 | 1022.6 |
| 20260509093051 | 10 | 174 | 0.0 | 8.0 | 0.00 | 0.03 | 0.00 | 78 | 1022.5 |
| 20260509092551 | 10 | 99 | 1.6 | 8.0 | 0.00 | 0.03 | 0.00 | 77 | 1022.5 |
| 20260509092050 | 10 | 49 | 1.6 | 6.4 | 0.00 | 0.03 | 0.00 | 76 | 1022.5 |
| 20260509091550 | 10 | 104 | 1.6 | 4.8 | 0.00 | 0.03 | 0.00 | 76 | 1022.5 |
| 20260509091050 | 10 | 87 | 1.6 | 6.4 | 0.00 | 0.03 | 0.00 | 76 | 1022.4 |
| 20260509090553 | 10 | 75 | 1.6 | 9.7 | 0.00 | 0.03 | 0.00 | 78 | 1022.5 |
| 20260509090059 | 10 | 355 | 3.2 | 9.7 | 0.00 | 0.03 | 0.00 | 77 | 1022.5 |
| 20260509085549 | 10 | 68 | 0.0 | 6.4 | 0.00 | 0.03 | 0.00 | 76 | 1022.5 |
| 20260509085049 | 10 | 65 | 1.6 | 6.4 | 0.00 | 0.03 | 0.00 | 77 | 1022.4 |
| 20260509084553 | 10 | 119 | 0.0 | 6.4 | 0.00 | 0.03 | 0.00 | 78 | 1022.4 |
| 20260509084050 | 10 | 65 | 0.0 | 6.4 | 0.00 | 0.03 | 0.00 | 76 | 1022.6 |
| 20260509083549 | 10 | 89 | 1.6 | 4.8 | 0.00 | 0.03 | 0.00 | 76 | 1022.5 |
| 20260509083057 | 10 | 87 | 1.6 | 6.4 | 0.00 | 0.03 | 0.00 | 75 | 1022.5 |
| 20260509082548 | 11 | 72 | 3.2 | 12.9 | 0.00 | 0.03 | 0.00 | 75 | 1022.5 |
| 20260509082049 | 11 | 85 | 1.6 | 12.9 | 0.00 | 0.03 | 0.00 | 75 | 1022.5 |
| 20260509081548 | 11 | 80 | 1.6 | 9.7 | 0.00 | 0.03 | 0.00 | 78 | 1022.4 |
| 20260509081048 | 10 | 78 | 1.6 | 6.4 | 0.00 | 0.03 | 0.00 | 76 | 1022.2 |
| 20260509080548 | 10 | 182 | 1.6 | 6.4 | 0.00 | 0.03 | 0.00 | 77 | 1022.3 |
| 20260509080047 | 10 | 134 | 0.0 | 6.4 | 0.00 | 0.03 | 0.00 | 74 | 1022.3 |
| 20260509075545 | 10 | 126 | 0.0 | 11.3 | 0.00 | 0.03 | 0.00 | 75 | 1022.4 |
| 20260509075044 | 10 | 84 | 3.2 | 16.1 | 0.00 | 0.03 | 0.00 | 75 | 1022.3 |
| 20260509074551 | 10 | 83 | 1.6 | 16.1 | 0.00 | 0.03 | 0.00 | 78 | 1022.4 |
| 20260509074043 | 10 | 89 | 4.8 | 9.7 | 0.00 | 0.03 | 0.00 | 79 | 1022.5 |
| 20260509073542 | 10 | 90 | 3.2 | 8.0 | 0.00 | 0.03 | 0.00 | 77 | 1022.5 |
| 20260509073040 | 10 | 78 | 1.6 | 6.4 | 0.00 | 0.03 | 0.00 | 79 | 1022.5 |
| 20260509072540 | 10 | 111 | 1.6 | 12.9 | 0.00 | 0.03 | 0.00 | 83 | 1022.5 |
| 20260509072039 | 10 | 76 | 3.2 | 14.5 | 0.00 | 0.03 | 0.00 | 83 | 1022.4 |
| 20260509071543 | 9 | 105 | 3.2 | 11.3 | 0.00 | 0.03 | 0.00 | 82 | 1022.3 |
| 20260509071037 | 9 | 40 | 3.2 | 12.9 | 0.00 | 0.03 | 0.00 | 85 | 1022.5 |
| 20260509070537 | 9 | 53 | 1.6 | 12.9 | 0.00 | 0.03 | 0.00 | 86 | 1022.4 |
| 20260509070036 | 9 | 90 | 4.8 | 14.5 | 0.00 | 0.03 | 0.00 | 85 | 1022.4 |
| 20260509065534 | 9 | 95 | 4.8 | 14.5 | 0.00 | 0.03 | 0.00 | 87 | 1022.4 |
| 20260509065033 | 9 | 86 | 1.6 | 11.3 | 0.00 | 0.03 | 0.00 | 89 | 1022.4 |
| 20260509064532 | 8 | 74 | 3.2 | 11.3 | 0.00 | 0.03 | 0.00 | 90 | 1022.3 |
| 20260509064031 | 8 | 94 | 3.2 | 9.7 | 0.00 | 0.03 | 0.00 | 91 | 1022.3 |
| 20260509063530 | 8 | 77 | 1.6 | 8.0 | 0.00 | 0.03 | 0.00 | 93 | 1022.4 |
| 20260509063028 | 7 | 63 | 0.0 | 6.4 | 0.00 | 0.03 | 0.00 | 93 | 1022.4 |
| 20260509062527 | 7 | 90 | 0.0 | 4.8 | 0.00 | 0.03 | 0.00 | 94 | 1022.4 |
| 20260509062026 | 7 | 90 | 0.0 | 4.8 | 0.00 | 0.03 | 0.00 | 93 | 1022.4 |
| 20260509061525 | 7 | 80 | 1.6 | 11.3 | 0.00 | 0.03 | 0.00 | 94 | 1022.3 |
| 20260509061030 | 7 | 58 | 1.6 | 11.3 | 0.00 | 0.03 | 0.00 | 94 | 1022.3 |
| 20260509060524 | 7 | 71 | 1.6 | 11.3 | 0.00 | 0.03 | 0.00 | 94 | 1022.2 |
| 20260509060023 | 7 | 87 | 1.6 | 11.3 | 0.00 | 0.03 | 0.00 | 94 | 1022.4 |
| 20260509055526 | 7 | 33 | 0.0 | 4.8 | 0.00 | 0.03 | 0.00 | 95 | 1022.4 |
| 20260509055021 | 7 | 71 | 1.6 | 4.8 | 0.00 | 0.03 | 0.00 | 95 | 1022.2 |
| 20260509054520 | 7 | 78 | 1.6 | 4.8 | 0.00 | 0.03 | 0.00 | 95 | 1022.2 |
| 20260509054019 | 7 | 78 | 0.0 | 6.4 | 0.00 | 0.03 | 0.00 | 95 | 1022.1 |
| 20260509053519 | 7 | 77 | 1.6 | 6.4 | 0.00 | 0.03 | 0.00 | 95 | 1022.3 |
| 20260509053018 | 7 | 67 | 1.6 | 6.4 | 0.00 | 0.03 | 0.00 | 95 | 1022.4 |
| 20260509052517 | 7 | 67 | 1.6 | 6.4 | 0.00 | 0.03 | 0.00 | 94 | 1022.2 |
| 20260509052015 | 7 | 78 | 1.6 | 6.4 | 0.00 | 0.03 | 0.00 | 95 | 1022.2 |
| 20260509051515 | 7 | 76 | 0.0 | 4.8 | 0.00 | 0.03 | 0.00 | 95 | 1022.1 |
| 20260509051017 | 7 | 76 | 1.6 | 4.8 | 0.00 | 0.03 | 0.00 | 95 | 1022.0 |
| 20260509050514 | 7 | 76 | 1.6 | 4.8 | 0.00 | 0.03 | 0.00 | 95 | 1022.1 |
| 20260509050018 | 7 | 81 | 0.0 | 4.8 | 0.00 | 0.03 | 0.00 | 95 | 1022.0 |
| 20260509045519 | 7 | 82 | 1.6 | 8.0 | 0.00 | 0.03 | 0.00 | 94 | 1022.0 |
| 20260509045010 | 7 | 54 | 3.2 | 8.0 | 0.00 | 0.03 | 0.00 | 94 | 1022.1 |
| 20260509044509 | 7 | 80 | 1.6 | 4.8 | 0.00 | 0.03 | 0.00 | 94 | 1022.0 |
| 20260509044011 | 7 | 94 | 0.0 | 4.8 | 0.00 | 0.03 | 0.00 | 94 | 1022.0 |
| 20260509043509 | 7 | 63 | 0.0 | 3.2 | 0.00 | 0.03 | 0.00 | 94 | 1022.0 |
| 20260509043007 | 7 | 62 | 0.0 | 3.2 | 0.00 | 0.03 | 0.00 | 94 | 1021.9 |
| 20260509042507 | 7 | 63 | 0.0 | 4.8 | 0.00 | 0.03 | 0.00 | 93 | 1021.8 |
| 20260509042010 | 7 | 63 | 0.0 | 6.4 | 0.00 | 0.03 | 0.00 | 93 | 1021.7 |
| 20260509041507 | 7 | 69 | 0.0 | 6.4 | 0.00 | 0.03 | 0.00 | 93 | 1021.7 |
| 20260509041005 | 6 | 71 | 1.6 | 4.8 | 0.00 | 0.03 | 0.00 | 93 | 1021.7 |
| 20260509040503 | 6 | 74 | 1.6 | 4.8 | 0.00 | 0.03 | 0.00 | 93 | 1021.6 |
| 20260509040003 | 6 | 69 | 0.0 | 6.4 | 0.00 | 0.03 | 0.00 | 93 | 1021.7 |
| 20260509035502 | 6 | 69 | 0.0 | 6.4 | 0.00 | 0.03 | 0.00 | 93 | 1021.6 |
| 20260509035001 | 6 | 78 | 0.0 | 0.0 | 0.00 | 0.03 | 0.00 | 93 | 1021.7 |
| 20260509034501 | 6 | 79 | 0.0 | 3.2 | 0.00 | 0.03 | 0.00 | 93 | 1021.6 |
| 20260509034100 | 6 | 77 | 0.0 | 3.2 | 0.00 | 0.03 | 0.00 | 93 | 1021.7 |
| 20260509033603 | 6 | 331 | 0.0 | 3.2 | 0.00 | 0.03 | 0.00 | 93 | 1021.7 |
| 20260509033100 | 6 | 63 | 0.0 | 0.0 | 0.00 | 0.03 | 0.00 | 93 | 1021.6 |
| 20260509033002 | 6 | 63 | 0.0 | 0.0 | 0.00 | 0.03 | 0.00 | 93 | 1021.7 |
| 20260509032559 | 6 | 63 | 0.0 | 0.0 | 0.00 | 0.03 | 0.00 | 93 | 1021.7 |
| 20260509032058 | 6 | 63 | 0.0 | 0.0 | 0.00 | 0.03 | 0.00 | 93 | 1021.6 |
| 20260509031602 | 6 | 74 | 0.0 | 3.2 | 0.00 | 0.03 | 0.00 | 94 | 1021.6 |
| 20260509031058 | 6 | 76 | 0.0 | 3.2 | 0.00 | 0.03 | 0.00 | 94 | 1021.7 |
| 20260509030558 | 6 | 76 | 0.0 | 3.2 | 0.00 | 0.03 | 0.00 | 94 | 1021.8 |
| 20260509030113 | 6 | 78 | 0.0 | 3.2 | 0.00 | 0.03 | 0.00 | 94 | 1021.8 |
| 20260509025557 | 6 | 76 | 0.0 | 0.0 | 0.00 | 0.03 | 0.00 | 94 | 1021.8 |
| 20260509025101 | 6 | 77 | 0.0 | 3.2 | 0.00 | 0.03 | 0.00 | 94 | 1021.7 |
| 20260509024601 | 6 | 78 | 0.0 | 4.8 | 0.00 | 0.03 | 0.00 | 94 | 1021.8 |
| 20260509024057 | 6 | 68 | 0.0 | 3.2 | 0.00 | 0.03 | 0.00 | 94 | 1021.8 |
| 20260509023559 | 6 | 66 | 0.0 | 0.0 | 0.00 | 0.03 | 0.00 | 94 | 1021.8 |
| 20260509023059 | 6 | 66 | 0.0 | 3.2 | 0.00 | 0.03 | 0.00 | 94 | 1021.9 |
| 20260509022556 | 6 | 66 | 0.0 | 3.2 | 0.00 | 0.03 | 0.00 | 94 | 1021.9 |
| 20260509022059 | 6 | 66 | 0.0 | 3.2 | 0.00 | 0.03 | 0.00 | 94 | 1021.9 |
| 20260509021557 | 6 | 67 | 0.0 | 3.2 | 0.00 | 0.03 | 0.00 | 94 | 1022.0 |
| 20260509021058 | 6 | 67 | 0.0 | 0.0 | 0.00 | 0.03 | 0.00 | 94 | 1022.0 |
| 20260509020555 | 6 | 67 | 0.0 | 3.2 | 0.00 | 0.03 | 0.00 | 94 | 1022.0 |
| 20260509020105 | 6 | 68 | 0.0 | 3.2 | 0.00 | 0.03 | 0.00 | 94 | 1021.8 |
| 20260509015555 | 6 | 68 | 0.0 | 3.2 | 0.00 | 0.03 | 0.00 | 94 | 1021.9 |
| 20260509015055 | 6 | 69 | 0.0 | 3.2 | 0.00 | 0.03 | 0.00 | 94 | 1021.8 |
| 20260509014556 | 6 | 69 | 0.0 | 3.2 | 0.00 | 0.03 | 0.00 | 94 | 1021.8 |
| 20260509014054 | 6 | 68 | 0.0 | 6.4 | 0.00 | 0.03 | 0.00 | 94 | 1021.8 |
| 20260509013554 | 6 | 67 | 0.0 | 6.4 | 0.00 | 0.03 | 0.00 | 94 | 1021.8 |
| 20260509013058 | 6 | 61 | 1.6 | 4.8 | 0.00 | 0.03 | 0.00 | 94 | 1021.7 |
| 20260509012553 | 6 | 67 | 1.6 | 4.8 | 0.00 | 0.03 | 0.00 | 94 | 1021.8 |
| 20260509012052 | 6 | 34 | 1.6 | 4.8 | 0.00 | 0.03 | 0.00 | 95 | 1021.7 |
| 20260509011556 | 6 | 57 | 0.0 | 4.8 | 0.00 | 0.03 | 0.00 | 95 | 1021.7 |
| 20260509011052 | 6 | 336 | 0.0 | 4.8 | 0.00 | 0.03 | 0.00 | 95 | 1021.7 |
| 20260509010551 | 6 | 66 | 1.6 | 4.8 | 0.00 | 0.03 | 0.00 | 96 | 1021.7 |
| 20260509010051 | 6 | 67 | 0.0 | 4.8 | 0.00 | 0.03 | 0.00 | 96 | 1021.7 |
| 20260509005550 | 6 | 69 | 1.6 | 4.8 | 0.00 | 0.03 | 0.00 | 97 | 1021.7 |
| 20260509005051 | 6 | 70 | 0.0 | 4.8 | 0.00 | 0.03 | 0.00 | 97 | 1021.7 |
| 20260509004557 | 6 | 70 | 1.6 | 4.8 | 0.00 | 0.03 | 0.00 | 97 | 1021.6 |
| 20260509004049 | 6 | 71 | 0.0 | 4.8 | 0.00 | 0.03 | 0.00 | 97 | 1021.7 |
| 20260509003549 | 6 | 74 | 0.0 | 4.8 | 0.00 | 0.03 | 0.00 | 98 | 1021.8 |
| 20260509003054 | 6 | 64 | 1.6 | 4.8 | 0.00 | 0.03 | 0.00 | 98 | 1021.7 |
| 20260509002547 | 6 | 63 | 1.6 | 4.8 | 0.00 | 0.03 | 0.00 | 97 | 1021.7 |
| 20260509002048 | 6 | 73 | 1.6 | 4.8 | 0.00 | 0.03 | 0.00 | 97 | 1021.8 |
| 20260509001546 | 6 | 84 | 0.0 | 4.8 | 0.00 | 0.03 | 0.00 | 97 | 1021.9 |
| 20260509001045 | 6 | 81 | 0.0 | 4.8 | 0.00 | 0.03 | 0.00 | 97 | 1021.8 |
| 20260509000545 | 6 | 81 | 0.0 | 3.2 | 0.00 | 0.03 | 0.00 | 97 | 1021.8 |
| 20260509000044 | 6 | 82 | 0.0 | 0.0 | 0.00 | 0.03 | 0.00 | 98 | 1021.8 |
| 20260508235544 | 6 | 82 | 0.0 | 0.0 | 0.00 | 0.03 | 0.00 | 98 | 1022.0 |
| 20260508235045 | 6 | 82 | 0.0 | 0.0 | 0.00 | 0.03 | 0.00 | 98 | 1022.0 |
| 20260508234544 | 6 | 83 | 0.0 | 3.2 | 0.00 | 0.03 | 0.00 | 98 | 1022.0 |
| 20260508234043 | 6 | 83 | 0.0 | 3.2 | 0.00 | 0.03 | 0.00 | 98 | 1022.0 |
| 20260508233544 | 6 | 84 | 0.0 | 3.2 | 0.00 | 0.03 | 0.00 | 97 | 1021.9 |
| 20260508233043 | 6 | 91 | 1.6 | 6.4 | 0.00 | 0.03 | 0.00 | 97 | 1022.0 |
| 20260508232544 | 6 | 94 | 1.6 | 6.4 | 0.00 | 0.03 | 0.00 | 97 | 1022.0 |
| 20260508232041 | 6 | 94 | 1.6 | 4.8 | 0.00 | 0.03 | 0.00 | 98 | 1022.0 |
| 20260508231540 | 6 | 62 | 0.0 | 1.6 | 0.00 | 0.03 | 0.00 | 98 | 1022.1 |
| 20260508231040 | 6 | 61 | 0.0 | 3.2 | 0.00 | 0.03 | 0.00 | 98 | 1021.9 |
| 20260508230541 | 6 | 61 | 1.6 | 6.4 | 0.00 | 0.03 | 0.00 | 98 | 1022.1 |
| 20260508230040 | 6 | 350 | 0.0 | 6.4 | 0.00 | 0.03 | 0.00 | 98 | 1022.0 |
| 20260508225539 | 6 | 81 | 0.0 | 4.8 | 0.00 | 0.03 | 0.00 | 98 | 1022.1 |
| 20260508225041 | 6 | 96 | 0.0 | 4.8 | 0.00 | 0.03 | 0.00 | 97 | 1022.1 |
| 20260508224549 | 6 | 96 | 1.6 | 4.8 | 0.00 | 0.03 | 0.00 | 98 | 1022.1 |
| 20260508224037 | 6 | 89 | 0.0 | 4.8 | 0.00 | 0.03 | 0.00 | 97 | 1022.1 |
| 20260508223536 | 6 | 87 | 0.0 | 4.8 | 0.00 | 0.03 | 0.00 | 98 | 1022.1 |
| 20260508223046 | 6 | 88 | 0.0 | 4.8 | 0.00 | 0.03 | 0.00 | 98 | 1022.1 |
| 20260508222535 | 6 | 97 | 0.0 | 9.7 | 0.00 | 0.03 | 0.00 | 98 | 1022.2 |
| 20260508222034 | 6 | 97 | 3.2 | 9.7 | 0.00 | 0.03 | 0.00 | 98 | 1022.1 |
| 20260508221534 | 6 | 103 | 3.2 | 6.4 | 0.00 | 0.03 | 0.00 | 98 | 1022.2 |
| 20260508221033 | 6 | 98 | 0.0 | 4.8 | 0.00 | 0.03 | 0.00 | 98 | 1022.1 |
| 20260508220532 | 6 | 98 | 1.6 | 6.4 | 0.00 | 0.03 | 0.00 | 98 | 1022.1 |
| 20260508220034 | 6 | 98 | 3.2 | 6.4 | 0.00 | 0.03 | 0.00 | 98 | 1022.1 |
| 20260508215532 | 6 | 80 | 1.6 | 6.4 | 0.00 | 0.03 | 0.03 | 98 | 1022.2 |
| 20260508215032 | 6 | 94 | 3.2 | 6.4 | 0.00 | 0.03 | 0.03 | 98 | 1022.2 |
| 20260508214531 | 6 | 100 | 0.0 | 4.8 | 0.00 | 0.03 | 0.03 | 97 | 1022.1 |
| 20260508214031 | 6 | 89 | 1.6 | 6.4 | 0.00 | 0.03 | 0.03 | 97 | 1022.0 |
| 20260508213531 | 6 | 87 | 3.2 | 6.4 | 0.00 | 0.03 | 0.03 | 97 | 1022.2 |
| 20260508213031 | 6 | 65 | 0.0 | 4.8 | 0.00 | 0.03 | 0.03 | 97 | 1022.2 |
| 20260508212531 | 6 | 63 | 0.0 | 3.2 | 0.00 | 0.03 | 0.03 | 97 | 1022.1 |
| 20260508212033 | 6 | 53 | 0.0 | 6.4 | 0.00 | 0.03 | 0.03 | 97 | 1022.2 |
| 20260508211530 | 6 | 53 | 0.0 | 6.4 | 0.00 | 0.03 | 0.03 | 97 | 1022.2 |
| 20260508211030 | 6 | 90 | 1.6 | 4.8 | 0.00 | 0.03 | 0.03 | 97 | 1022.1 |
| 20260508210530 | 6 | 87 | 1.6 | 4.8 | 0.00 | 0.03 | 0.03 | 97 | 1022.1 |
| 20260508210031 | 6 | 112 | 0.0 | 4.8 | 0.00 | 0.03 | 0.03 | 97 | 1022.2 |
| 20260508205531 | 6 | 107 | 1.6 | 4.8 | 0.00 | 0.03 | 0.03 | 97 | 1022.2 |
| 20260508205030 | 6 | 112 | 0.0 | 0.0 | 0.00 | 0.03 | 0.03 | 97 | 1022.1 |
| 20260508204532 | 6 | 111 | 0.0 | 0.0 | 0.00 | 0.03 | 0.03 | 97 | 1022.1 |
| 20260508204029 | 6 | 112 | 0.0 | 4.8 | 0.00 | 0.03 | 0.03 | 97 | 1022.1 |
| 20260508203528 | 6 | 105 | 0.0 | 8.0 | 0.00 | 0.03 | 0.03 | 97 | 1022.1 |
| 20260508203028 | 6 | 100 | 1.6 | 8.0 | 0.00 | 0.03 | 0.03 | 97 | 1022.0 |
| 20260508202528 | 6 | 105 | 1.6 | 6.4 | 0.00 | 0.03 | 0.03 | 97 | 1022.0 |
| 20260508202029 | 6 | 107 | 0.0 | 12.9 | 0.00 | 0.03 | 0.03 | 97 | 1022.0 |
| 20260508201530 | 6 | 96 | 3.2 | 12.9 | 0.00 | 0.03 | 0.03 | 97 | 1021.9 |
| 20260508201029 | 6 | 168 | 1.6 | 8.0 | 0.00 | 0.03 | 0.03 | 97 | 1021.8 |
| 20260508200526 | 6 | 113 | 1.6 | 6.4 | 0.00 | 0.03 | 0.03 | 97 | 1021.7 |
| 20260508200027 | 6 | 89 | 3.2 | 6.4 | 0.00 | 0.03 | 0.03 | 97 | 1021.6 |
| 20260508195530 | 6 | 102 | 3.2 | 9.7 | 0.00 | 0.03 | 0.03 | 97 | 1021.6 |
| 20260508195025 | 6 | 91 | 3.2 | 11.3 | 0.00 | 0.03 | 0.03 | 97 | 1021.5 |
| 20260508194533 | 6 | 93 | 1.6 | 6.4 | 0.00 | 0.03 | 0.03 | 97 | 1021.6 |
| 20260508194024 | 6 | 95 | 1.6 | 4.8 | 0.00 | 0.03 | 0.03 | 97 | 1021.6 |
| 20260508193524 | 6 | 97 | 1.6 | 4.8 | 0.00 | 0.03 | 0.03 | 97 | 1021.5 |
| 20260508193024 | 6 | 84 | 1.6 | 6.4 | 0.00 | 0.03 | 0.03 | 97 | 1021.5 |
| 20260508192528 | 6 | 86 | 1.6 | 4.8 | 0.00 | 0.03 | 0.03 | 97 | 1021.4 |
| 20260508192024 | 6 | 60 | 1.6 | 6.4 | 0.00 | 0.03 | 0.03 | 97 | 1021.4 |
| 20260508191532 | 6 | 43 | 1.6 | 6.4 | 0.00 | 0.03 | 0.03 | 97 | 1021.3 |
| 20260508191023 | 6 | 76 | 1.6 | 4.8 | 0.00 | 0.03 | 0.03 | 97 | 1021.5 |
| 20260508190623 | 6 | 76 | 0.0 | 4.8 | 0.00 | 0.03 | 0.03 | 97 | 1021.4 |
| 20260508190024 | 6 | 116 | 0.0 | 1.6 | 0.00 | 0.03 | 0.03 | 96 | 1021.4 |
| 20260508185522 | 6 | 116 | 0.0 | 3.2 | 0.00 | 0.05 | 0.03 | 96 | 1021.4 |
| 20260508185022 | 6 | 98 | 0.0 | 4.8 | 0.00 | 0.05 | 0.03 | 96 | 1021.3 |
| 20260508184524 | 6 | 98 | 0.0 | 4.8 | 0.00 | 0.05 | 0.03 | 96 | 1021.3 |
| 20260508184022 | 6 | 96 | 0.0 | 3.2 | 0.00 | 0.05 | 0.03 | 96 | 1021.3 |
| 20260508183522 | 6 | 96 | 0.0 | 3.2 | 0.00 | 0.05 | 0.03 | 95 | 1021.2 |
| 20260508183028 | 6 | 80 | 0.0 | 1.6 | 0.00 | 0.05 | 0.03 | 95 | 1021.2 |
| 20260508182521 | 6 | 80 | 0.0 | 1.6 | 0.00 | 0.05 | 0.03 | 95 | 1021.1 |
| 20260508182020 | 7 | 79 | 0.0 | 1.6 | 0.00 | 0.05 | 0.03 | 95 | 1021.1 |
| 20260508181520 | 7 | 77 | 0.0 | 3.2 | 0.00 | 0.05 | 0.03 | 95 | 1021.1 |
| 20260508181021 | 7 | 77 | 0.0 | 3.2 | 0.00 | 0.05 | 0.03 | 95 | 1021.1 |
| 20260508180520 | 7 | 90 | 0.0 | 0.0 | 0.00 | 0.05 | 0.03 | 95 | 1021.0 |
| 20260508180022 | 7 | 78 | 0.0 | 3.2 | 0.00 | 0.05 | 0.03 | 94 | 1021.0 |
| 20260508175520 | 7 | 81 | 0.0 | 4.8 | 0.00 | 0.05 | 0.03 | 94 | 1021.0 |
| 20260508175020 | 7 | 61 | 1.6 | 4.8 | 0.00 | 0.05 | 0.03 | 95 | 1021.1 |
| 20260508174520 | 7 | 49 | 0.0 | 4.8 | 0.00 | 0.05 | 0.03 | 95 | 1020.9 |
| 20260508174022 | 7 | 101 | 1.6 | 4.8 | 0.00 | 0.05 | 0.03 | 95 | 1021.1 |
| 20260508173519 | 7 | 83 | 0.0 | 3.2 | 0.00 | 0.05 | 0.03 | 95 | 1021.0 |
| 20260508173020 | 7 | 64 | 0.0 | 6.4 | 0.00 | 0.05 | 0.03 | 94 | 1020.9 |
| 20260508172518 | 7 | 70 | 1.6 | 6.4 | 0.00 | 0.05 | 0.03 | 94 | 1020.9 |
| 20260508172018 | 7 | 94 | 1.6 | 6.4 | 0.00 | 0.05 | 0.03 | 94 | 1020.9 |